Location: Badlands Tank
(34.7185°N, 107.0376°W)
Time: 04:26:04
(UTC+00:00)

Cosmos 1943 Rocket - Visible Passes

Search period start: 18 November 2025 00:00
Search period end: 28 November 2025 00:00
Orbit: 812 x 842 km, 71.0° (Epoch: 17 November)

Date Brightness Start Highest point End Pass type
(mag) Time Alt. Az. Time Alt. Az. Time Alt. Az.
18 Nov 2.2 00:25:07 10° SSW 00:30:45 87° ESE 00:36:23 10° NNE visible
18 Nov 4.9 02:13:05 10° WNW 02:15:10 12° NW 02:17:16 10° NNW visible
19 Nov 4.8 01:52:37 10° W 01:55:27 14° NW 01:58:18 10° NNW visible
20 Nov 4.7 01:32:22 10° W 01:35:45 16° NW 01:39:09 10° NNW visible
21 Nov 4.6 01:12:13 10° W 01:16:03 18° WNW 01:19:53 10° NNW visible
22 Nov 4.4 00:52:11 10° WSW 00:56:22 21° WNW 01:00:33 10° N visible
23 Nov 4.3 00:32:12 10° WSW 00:36:42 24° WNW 00:41:11 10° N visible
